Regional Weather Roundup
Issued by NWS

Home | Current Version | Previous Version | Graphics & Text | Print | Product List | Glossary Off
Versions: 1 2 3 4 5 6 7 8 9 10 11 12 13 14 15 16 17 18 19 20 21 22 23 24 25 26 27 28 29 30 31 32 33 34 35 36 37 38 39 40 41 42 43 44 45 46 47 48 49 50

000
ASUS43 KLMK 271510
RWRKY
KENTUCKY REGIONAL WEATHER ROUNDUP
NATIONAL WEATHER SERVICE LOUISVILLE KY
1100 AM EDT WED JUL 27 2016

NOTE "FAIR" INDICATES FEW OR NO CLOUDS BELOW 12,000 FEET
WITH NO SIGNIFICANT WEATHER AND/OR OBSTRUCTIONS TO VISIBILITY.

KYZ001>023-026-027-061>063-070>075-271600-
WESTERN AND SOUTH CENTRAL KENTUCKY

CITY           SKY/WX    TMP DP  RH WIND       PRES   REMARKS
PADUCAH        SUNNY     86  76  71 SE5       29.98R HX  96
HENDERSON      PTSUNNY   82  77  83 SE5       29.98F HX  91
OWENSBORO      CLOUDY    79  74  84 S7        30.00F
HOPKINSVILLE   SUNNY     85  75  72 VRB5      30.00S HX  92
BOWLING GREEN  CLOUDY    83  72  69 N7        30.02F
GLASGOW        CLOUDY    85  73  65 SW5       30.02F HX  91
$$

KYZ024-025-028>034-038-045-046-053-271600-
NORTH CENTRAL KENTUCKY

CITY           SKY/WX    TMP DP  RH WIND       PRES   REMARKS
LOUISVILLE/SDF CLOUDY    87  74  64 VRB5      30.00F HX  95
LOUISVILLE/LOU CLOUDY    85  73  67 CALM      30.02S HX  91
FORT KNOX      PTSUNNY   85  75  70 VRB5      30.00F HX  93
$$

KYZ035>037-039>044-047>052-055>060-089>105-271600-
NORTHEAST KENTUCKY

CITY           SKY/WX    TMP DP  RH WIND       PRES   REMARKS
LEXINGTON      CLOUDY    84  75  74 W5        30.04S HX  92
COVINGTON      CLOUDY    82  72  71 N5        30.03F
FRANKFORT      MOSUNNY   84  74  71 CALM      30.02S HX  91
$$

KYZ054-064>069-076>088-106>120-271600-
SOUTHEAST KENTUCKY

CITY           SKY/WX    TMP DP  RH WIND       PRES   REMARKS
JACKSON        PTSUNNY   81  74  79 CALM      30.05F
LONDON         PTSUNNY   81  71  71 CALM      30.05F
SOMERSET       CLOUDY    79  72  78 CALM      30.06S
MIDDLESBORO    SUNNY     86  74  68 CALM      30.06F HX  94
MONTICELLO     MOSUNNY  N/A N/A N/A VRB7      30.07S
$$





USA.gov is the U.S. government's official web portal to all federal, state and local government web resources and services.